Location: Morisset
(33.1080°S, 151.4871°E)
Time: 09:09:59
(UTC+00:00)

Cosmos 44 - Pass Details

Date: 29 October 2020
Orbit: 577 x 784 km, 65.1° (Epoch: 27 November)

Event Time Altitude Azimuth Distance (km) Brightness Sun altitude
Exits shadow 18:04:20 - 344° (NNW) 3,108 6.3 -11.1°
Reaches altitude 10° 18:06:28 10° 347° (NNW) 2,301 5.6 -10.7°
Maximum altitude 18:11:39 59° 65° (ENE) 866 4.0 -9.7°
Drops below altitude 10° 18:16:40 10° 143° (SE) 2,218 6.9 -8.7°
Sets 18:19:00 0° 147° (SSE) 3,111 7.7 -8.3°
